[[{"header":{"parameterUnit":"m.s-1","parameterCategory":1,"la1":30.2991,"la2":30.254,"lo1":-89.0895,"lo2":-89.0444,"dy":0.0017,"dx":0.0017,"nx":28,"ny":28,"refTime":"2024-10-12T09:00:00:Z","depth":0,"parameterNumber":2,"parameterNumberName":"U-component_of_WINDS"},"data":[0,0,0,0,0,0,0,0,0,0,0,0,0,0,0,0,0,0,0,0,0,0,0,0,0,0,0,0,0,0,0,0,0,0,0,0,0,0,0,0,0,0,0,0,0,0,0,0,0,0,0,0,0,0,0,0,0,0,1.9341,1.9341,0,1.9326,1.9326,1.9326,1.9282,1.9281,1.928,1.9279,1.9261,1.9262,1.9262,0,0,0,0,0,0,0,0,0,0,0,0,0,1.9328,1.9329,1.9341,1.9341,1.9341,1.9326,1.9326,1.9326,1.9282,1.9281,1.928,1.9279,1.9261,1.9262,1.9262,0,0,0,0,0,0,0,0,0,0,0,0,0,1.9325,1.9329,1.9341,1.9317,1.9315,1.9326,1.9326,1.9325,1.9282,1.9281,1.9279,1.9278,1.9261,1.9262,1.9262,1.9294,0,0,1.9264,1.9264,0,0,0,0,0,0,0,0,1.9326,1.9326,1.9321,1.9319,1.9317,1.9304,1.9314,1.9315,1.9283,1.9295,1.9279,1.9277,1.9277,1.9276,1.9276,1.9293,1.9293,1.9264,1.9265,1.9265,1.9265,0,0,0,0,0,0,0,1.9326,1.9326,1.9335,1.9321,1.9318,1.9306,1.9304,1.9314,1.9294,1.9294,1.929,1.9289,1.9275,1.9276,1.9275,1.9292,1.9264,1.9265,1.9265,1.9265,1.933,1.9331,0,0,0,0,0,0,1.933,1.9327,1.9336,1.9335,1.9318,1.9307,1.9305,1.931,1.9294,1.929,1.929,1.9287,1.9275,1.9275,1.9275,1.9307,1.9265,1.9265,1.9266,1.9329,1.933,1.9332,0,0,0,0,0,0,1.933,1.9331,1.9336,1.933,1.933,1.9309,1.9315,1.931,1.9311,1.9291,1.9287,1.9295,1.9274,1.9274,1.9289,1.9306,1.9266,1.9266,1.9327,1.9329,1.9331,1.9376,0,0,0,0,0,0,1.933,1.9331,1.9345,1.933,1.933,1.9352,1.9316,1.9311,1.9312,1.9308,1.9294,1.9291,1.9273,1.9288,1.9289,1.9306,1.9267,1.9325,1.9328,1.933,1.9373,1.9379,1.9385,0,0,0,0,0,1.9329,1.9359,1.9346,1.9347,1.9347,1.9354,1.9353,1.9333,1.9314,1.9326,1.9312,1.9291,1.9305,1.929,1.9291,1.9309,1.9324,1.9327,1.933,1.937,1.9378,1.9385,0,0,0,0,0,0,1.9376,1.9357,1.9342,1.9368,1.9363,1.9346,1.9361,1.9342,1.9342,1.9338,1.9312,1.9309,1.9327,1.9319,1.9304,1.9336,1.931,1.9314,1.934,1.9348,1.9354,1.9354,1.9267,0,0,0,0,0,1.9389,1.9398,1.938,1.9404,1.9402,1.9382,1.9385,1.9369,1.9362,1.936,1.9348,1.9341,1.9343,1.9345,1.9347,1.9372,1.9366,1.9384,1.939,1.9395,1.9398,1.9406,1.9413,1.9342,1.9342,1.9342,0,0,1.9417,1.9407,1.9414,1.9413,1.9407,1.9414,1.9381,1.9391,1.9395,1.9361,1.9374,1.9364,1.9355,1.9374,1.9382,1.9368,1.9416,1.9399,1.9403,1.9403,1.941,1.9416,1.9422,1.9344,1.9343,1.9343,0,0,1.947,1.9465,1.9483,1.9477,1.9468,1.9454,1.9458,1.9444,1.9436,1.9449,1.9422,1.9426,1.9432,1.9425,1.9422,1.9468,1.9447,1.947,1.95,1.9509,1.9514,1.9519,1.9532,1.9538,1.9473,1.9473,1.9473,0,1.9505,1.9517,1.9495,1.9505,1.9504,1.9473,1.9489,1.9484,1.9476,1.9475,1.946,1.9463,1.9455,1.947,1.9481,1.9481,1.9482,1.947,1.9516,1.952,1.9524,1.9536,1.9542,1.9475,1.9475,1.9475,1.9474,0,1.9558,1.9566,1.9581,1.9573,1.9573,1.9587,1.9565,1.9568,1.9551,1.9538,1.9548,1.9537,1.9533,1.9536,1.9521,1.9548,1.9539,1.9521,1.9494,1.9534,1.9545,1.9549,1.9479,1.9478,1.9477,1.9477,0,0,1.9642,1.9619,1.9625,1.9619,1.9605,1.961,1.962,1.9617,1.9618,1.9613,1.9619,1.9622,1.9603,1.96,1.9584,1.9591,1.9624,1.9571,1.957,1.9579,1.9648,1.9661,1.9667,1.9611,1.9611,1.9612,1.9648,0,1.9689,1.9707,1.9685,1.9706,1.9711,1.968,1.9688,1.9679,1.9667,1.9667,1.9652,1.9654,1.9631,1.9628,1.9635,1.9619,1.9637,1.9616,1.9613,1.9613,1.9614,1.9673,1.9687,1.9722,1.9653,1.9653,1.9654,0,1.9748,1.9744,1.9765,1.9746,1.9747,1.9756,1.9748,1.9751,1.9738,1.9728,1.9723,1.9702,1.9708,1.9683,1.9689,1.9675,1.9673,1.9664,1.9665,1.9662,1.9635,1.967,1.9733,1.9738,1.9661,1.9661,1.966,0,1.9802,1.9803,1.9814,1.9811,1.979,1.9796,1.9787,1.9774,1.9772,1.9765,1.9763,1.9757,1.9754,1.9749,1.9726,1.971,1.9733,1.9707,1.9722,1.9723,1.9728,1.9727,1.9789,1.973,1.973,1.973,1.973,0,1.9857,1.987,1.9838,1.9845,1.9858,1.9832,1.9845,1.9833,1.9821,1.9823,1.9796,1.9799,1.9769,1.9768,1.975,1.9756,1.9755,1.9745,1.9739,1.9746,1.9747,1.9742,1.9739,1.9731,1.9731,1.9731,1.973,0,1.992,1.9899,1.9909,1.9888,1.9882,1.9892,1.9873,1.9877,1.9862,1.9865,1.9864,1.9839,1.9835,1.9812,1.9804,1.9791,1.9802,1.9794,1.9806,1.9803,1.9818,1.9816,1.9877,1.9883,1.9823,1.9823,1.9824,0,1.9955,1.9964,1.9943,1.9942,1.9935,1.9935,1.9932,1.9906,1.9904,1.9889,1.9894,1.9888,1.9882,1.9877,1.9857,1.9849,1.9838,1.986,1.9837,1.9842,1.9835,1.9834,1.9833,1.9865,1.9866,1.9866,1.9867,0,2.0018,2.0006,2.0003,1.9996,1.9993,1.9986,1.9977,1.9978,1.9949,1.9947,1.9943,1.9938,1.9928,1.9921,1.9909,1.9899,1.9877,1.9874,1.9877,1.9882,1.9888,1.9882,1.9817,1.9873,1.9872,1.9872,1.9871,1.9871,2.0065,2.0071,2.0056,2.0052,2.0042,2.0034,2.0036,2.0019,2.0016,2.0005,1.999,1.9987,1.9971,1.9953,1.9943,1.9939,1.9927,1.9932,1.9932,1.9933,1.9935,1.9891,1.9937,1.9937,1.9937,1.9937,1.9936,0,2.0124,2.0112,2.011,2.0097,2.0094,2.0074,2.0062,2.006,2.0058,2.0045,2.0039,2.0032,2.0024,2.0003,1.9993,1.9993,1.9982,1.9991,1.999,1.9987,1.9948,1.9946,1.9999,1.9999,1.9999,1.9999,1.9999,1.9999,2.0154,2.0161,2.0147,2.0147,2.0135,2.0132,2.0126,2.0117,2.0106,2.01,2.0093,2.0079,2.0062,2.0049,2.0041,2.0034,2.003,2.0042,2.0032,1.9996,1.999,1.9984,1.9981,2.0042,2.0042,2.007,2.007,2.0071]},{"header":{"parameterUnit":"m.s-1","parameterCategory":1,"la1":30.2991,"la2":30.254,"lo1":-89.0895,"lo2":-89.0444,"dy":0.0017,"dx":0.0017,"nx":28,"ny":28,"refTime":"2024-10-12T09:00:00:Z","depth":0,"parameterNumber":3,"parameterNumberName":"V-component_of_WINDS"},"data":[0,0,0,0,0,0,0,0,0,0,0,0,0,0,0,0,0,0,0,0,0,0,0,0,0,0,0,0,0,0,0,0,0,0,0,0,0,0,0,0,0,0,0,0,0,0,0,0,0,0,0,0,0,0,0,0,0,0,0.4234,0.4234,0,0.4249,0.425,0.425,0.4236,0.4235,0.4235,0.4234,0.4251,0.4252,0.4253,0,0,0,0,0,0,0,0,0,0,0,0,0,0.4194,0.4194,0.4234,0.4234,0.4235,0.4249,0.425,0.425,0.4236,0.4235,0.4235,0.4234,0.4251,0.4252,0.4253,0,0,0,0,0,0,0,0,0,0,0,0,0,0.421,0.4195,0.4234,0.423,0.4229,0.4249,0.425,0.425,0.4236,0.4235,0.4234,0.4234,0.425,0.4252,0.4253,0.4279,0,0,0.4258,0.4258,0,0,0,0,0,0,0,0,0.4209,0.4212,0.423,0.423,0.423,0.424,0.4241,0.426,0.4236,0.4234,0.4234,0.4233,0.4248,0.425,0.4254,0.428,0.4281,0.4258,0.4259,0.4259,0.426,0,0,0,0,0,0,0,0.4208,0.4211,0.424,0.423,0.423,0.4227,0.4228,0.4245,0.4245,0.4234,0.4233,0.4235,0.4248,0.4253,0.4255,0.4281,0.4258,0.4259,0.426,0.4261,0.4327,0.4328,0,0,0,0,0,0,0.4207,0.421,0.424,0.4241,0.4217,0.4228,0.423,0.4237,0.4245,0.4246,0.4235,0.4234,0.4251,0.4253,0.4255,0.4285,0.4259,0.4261,0.4262,0.4326,0.4327,0.4328,0,0,0,0,0,0,0.4207,0.421,0.4239,0.4225,0.4229,0.423,0.4239,0.4238,0.4243,0.4246,0.4247,0.4241,0.425,0.4253,0.4273,0.4286,0.4261,0.4263,0.4325,0.4327,0.4328,0.4346,0,0,0,0,0,0,0.4206,0.421,0.422,0.4226,0.4229,0.4257,0.4239,0.4239,0.4246,0.4244,0.4251,0.4252,0.425,0.4271,0.4274,0.4287,0.4264,0.4324,0.4326,0.4327,0.4344,0.4348,0.4351,0,0,0,0,0,0.4204,0.4225,0.4221,0.4224,0.4242,0.4258,0.426,0.4257,0.4247,0.4257,0.4259,0.4252,0.4284,0.4273,0.4277,0.429,0.4323,0.4325,0.4327,0.4343,0.4347,0.4351,0,0,0,0,0,0,0.4222,0.4226,0.4221,0.4244,0.4251,0.4255,0.4268,0.4262,0.4271,0.427,0.4266,0.4267,0.4288,0.4291,0.4279,0.4315,0.4302,0.4305,0.4312,0.4317,0.432,0.4319,0.4265,0,0,0,0,0,0.4229,0.4241,0.4244,0.4264,0.4267,0.4267,0.4274,0.4271,0.4277,0.428,0.4283,0.429,0.4301,0.4309,0.432,0.4345,0.4346,0.4356,0.4359,0.4362,0.4364,0.4376,0.4381,0.4335,0.4335,0.4335,0,0,0.4243,0.4246,0.4254,0.4268,0.4272,0.4285,0.4269,0.4284,0.4293,0.4282,0.4301,0.4303,0.4311,0.4332,0.4342,0.4336,0.4377,0.4364,0.4366,0.4368,0.4379,0.4383,0.4387,0.4336,0.4336,0.4336,0,0,0.4275,0.4279,0.4296,0.43,0.4307,0.4306,0.431,0.4315,0.4316,0.4334,0.4326,0.4337,0.4357,0.4362,0.4367,0.4399,0.4393,0.4403,0.442,0.4432,0.4436,0.4439,0.4449,0.4453,0.4405,0.4406,0.4406,0,0.4292,0.431,0.4305,0.432,0.4325,0.4315,0.4332,0.4337,0.4347,0.4351,0.4343,0.4367,0.4372,0.4394,0.4401,0.4406,0.441,0.4402,0.4435,0.4438,0.4441,0.4451,0.4455,0.4407,0.4407,0.4406,0.4406,0,0.433,0.4342,0.4355,0.4364,0.4371,0.4387,0.4384,0.4392,0.4388,0.4388,0.4406,0.4411,0.4422,0.4427,0.4424,0.4448,0.4444,0.4436,0.4422,0.4447,0.4456,0.446,0.4408,0.4408,0.4408,0.4407,0,0,0.4374,0.4379,0.4384,0.4387,0.4393,0.4403,0.4417,0.4427,0.4433,0.444,0.4452,0.4469,0.4461,0.4467,0.4464,0.4474,0.4498,0.4465,0.4465,0.447,0.4524,0.453,0.4535,0.4493,0.4494,0.4495,0.4523,0,0.4406,0.4431,0.4426,0.445,0.4461,0.4451,0.4464,0.4469,0.4469,0.4478,0.4478,0.449,0.4479,0.4482,0.4492,0.4493,0.4509,0.4491,0.4504,0.4505,0.4502,0.454,0.4546,0.4573,0.4527,0.4528,0.4528,0,0.4446,0.4453,0.4478,0.448,0.4485,0.4496,0.4504,0.4514,0.4518,0.4518,0.4523,0.4518,0.4532,0.4518,0.4537,0.4525,0.453,0.4531,0.4532,0.4533,0.4518,0.4541,0.4581,0.4585,0.4534,0.4534,0.4533,0,0.4475,0.4491,0.4508,0.4511,0.4514,0.4522,0.4524,0.4528,0.4534,0.4541,0.4544,0.4553,0.4558,0.4565,0.4562,0.4552,0.4581,0.4567,0.4581,0.4581,0.4588,0.4587,0.4629,0.4591,0.4591,0.4591,0.4591,0,0.4511,0.4526,0.452,0.4531,0.4547,0.4542,0.4559,0.456,0.4563,0.4573,0.4565,0.4574,0.457,0.4579,0.4577,0.4593,0.4595,0.4595,0.4594,0.4595,0.4595,0.4598,0.4596,0.4592,0.4592,0.4592,0.4592,0,0.4546,0.4543,0.456,0.4561,0.4562,0.4574,0.4575,0.4585,0.4584,0.4596,0.4599,0.4597,0.4608,0.4605,0.4617,0.4615,0.4635,0.4632,0.4633,0.4632,0.4645,0.4644,0.469,0.4696,0.4655,0.4656,0.4656,0,0.4569,0.458,0.4582,0.4588,0.459,0.46,0.4605,0.46,0.4606,0.4611,0.462,0.4629,0.4636,0.4653,0.4653,0.4661,0.4658,0.4674,0.4659,0.466,0.4657,0.4657,0.4657,0.4677,0.4677,0.4677,0.4678,0,0.4609,0.4606,0.4614,0.4621,0.4627,0.4633,0.4637,0.4643,0.4637,0.4645,0.4654,0.466,0.4671,0.468,0.4687,0.4689,0.4683,0.4682,0.4686,0.4687,0.4687,0.4686,0.464,0.4681,0.4681,0.4681,0.468,0.468,0.4638,0.4647,0.465,0.4658,0.4661,0.4665,0.4673,0.4672,0.468,0.4688,0.4685,0.4696,0.4699,0.4708,0.4711,0.472,0.4714,0.4719,0.472,0.4722,0.4723,0.4686,0.4721,0.4721,0.4721,0.4721,0.4721,0,0.4677,0.4678,0.4686,0.4692,0.4698,0.469,0.4695,0.4701,0.471,0.4714,0.472,0.4731,0.474,0.474,0.4747,0.4754,0.4751,0.4756,0.4756,0.4756,0.4728,0.4724,0.4759,0.4759,0.4759,0.4759,0.4759,0.4759,0.4698,0.4713,0.471,0.4726,0.4726,0.4737,0.474,0.4743,0.4746,0.4758,0.4764,0.4764,0.4766,0.4773,0.4781,0.478,0.4783,0.4789,0.4788,0.4762,0.4758,0.4755,0.4751,0.479,0.479,0.4815,0.4815,0.4816]}]]